| time (UTC) | temp F | wind direction | speed MPH | gust MPH | rain 1hr in | rain 24hr in | rain mn in | humidity % | barometer mb |
| 20260510033529 | 60 | 0.0 | 1.0 | 0.00 | 0.02 | 0.02 | 80 | 1010.4 | |
| 20260510032524 | 60 | 0.0 | 0.0 | 0.00 | 0.02 | 0.02 | 78 | 1010.4 | |
| 20260510031519 | 61 | 0.0 | 0.0 | 0.00 | 0.02 | 0.02 | 76 | 1010.4 | |
| 20260510030535 | 61 | 0.0 | 1.0 | 0.00 | 0.02 | 0.02 | 75 | 1010.4 | |
| 20260510025530 | 61 | 0.0 | 0.0 | 0.00 | 0.02 | 0.02 | 74 | 1010.3 | |
| 20260510024525 | 62 | 0.0 | 1.0 | 0.00 | 0.02 | 0.02 | 73 | 1010.3 | |
| 20260510023521 | 62 | 0.0 | 0.0 | 0.00 | 0.02 | 0.02 | 72 | 1010.1 | |
| 20260510022516 | 63 | 0.0 | 0.0 | 0.00 | 0.02 | 0.02 | 70 | 1010.2 | |
| 20260510021532 | 64 | 0.0 | 0.0 | 0.00 | 0.02 | 0.02 | 68 | 1010.1 | |
| 20260510020527 | 64 | 0.0 | 0.0 | 0.00 | 0.02 | 0.02 | 68 | 1010.0 | |
| 20260510015523 | 63 | 305 | 0.0 | 1.0 | 0.00 | 0.02 | 0.02 | 68 | 1009.9 |
| 20260510014519 | 63 | 0.0 | 1.0 | 0.00 | 0.02 | 0.02 | 68 | 1010.0 | |
| 20260510013554 | 63 | 19 | 0.0 | 1.0 | 0.00 | 0.02 | 0.02 | 68 | 1009.7 |
| 20260510012530 | 63 | 0.0 | 1.0 | 0.00 | 0.02 | 0.02 | 67 | 1009.5 | |
| 20260510011525 | 64 | 0.0 | 0.0 | 0.00 | 0.02 | 0.02 | 66 | 1009.2 | |
| 20260510010520 | 64 | 0.0 | 0.0 | 0.00 | 0.02 | 0.02 | 65 | 1009.1 | |
| 20260510005536 | 65 | 0.0 | 1.0 | 0.00 | 0.02 | 0.02 | 64 | 1009.1 | |
| 20260510004531 | 66 | 0.0 | 0.0 | 0.00 | 0.02 | 0.02 | 62 | 1009.0 | |
| 20260510003526 | 66 | 0.0 | 0.0 | 0.00 | 0.02 | 0.02 | 60 | 1008.9 | |
| 20260510002522 | 67 | 0.0 | 0.0 | 0.00 | 0.02 | 0.02 | 59 | 1008.9 | |
| 20260510001518 | 68 | 0.0 | 0.0 | 0.00 | 0.02 | 0.02 | 57 | 1008.8 | |
| 20260510000553 | 69 | 0.0 | 1.0 | 0.00 | 0.02 | 0.02 | 56 | 1008.8 | |
| 20260509235528 | 71 | 0.0 | 0.0 | 0.00 | 0.02 | 0.02 | 53 | 1008.7 | |
| 20260509234524 | 72 | 16 | 0.0 | 2.0 | 0.00 | 0.02 | 0.02 | 50 | 1008.6 |
| 20260509233519 | 72 | 139 | 0.0 | 2.0 | 0.00 | 0.02 | 0.02 | 49 | 1008.6 |
| 20260509232535 | 72 | 298 | 1.0 | 3.0 | 0.00 | 0.02 | 0.02 | 49 | 1008.5 |
| 20260509231550 | 73 | 220 | 1.0 | 3.0 | 0.00 | 0.02 | 0.02 | 47 | 1008.5 |
| 20260509230526 | 73 | 291 | 1.0 | 3.0 | 0.00 | 0.02 | 0.02 | 47 | 1008.4 |
| 20260509225521 | 73 | 266 | 1.0 | 3.0 | 0.00 | 0.02 | 0.02 | 47 | 1008.5 |
| 20260509224516 | 74 | 231 | 2.0 | 6.0 | 0.00 | 0.02 | 0.02 | 46 | 1008.5 |
| 20260509223551 | 73 | 169 | 3.0 | 6.0 | 0.00 | 0.02 | 0.02 | 47 | 1008.5 |
| 20260509222547 | 73 | 277 | 1.0 | 4.0 | 0.00 | 0.02 | 0.02 | 48 | 1008.6 |
| 20260509221542 | 73 | 274 | 1.0 | 4.0 | 0.00 | 0.02 | 0.02 | 47 | 1008.6 |
| 20260509220518 | 73 | 294 | 1.0 | 3.0 | 0.00 | 0.02 | 0.02 | 47 | 1008.6 |
| 20260509215533 | 74 | 257 | 2.0 | 6.0 | 0.00 | 0.02 | 0.02 | 47 | 1008.5 |
| 20260509214528 | 73 | 261 | 1.0 | 2.0 | 0.00 | 0.02 | 0.02 | 47 | 1008.4 |
| 20260509213524 | 75 | 249 | 2.0 | 3.0 | 0.00 | 0.02 | 0.02 | 44 | 1008.5 |
| 20260509212519 | 75 | 268 | 3.0 | 5.0 | 0.00 | 0.02 | 0.02 | 45 | 1008.5 |
| 20260509211535 | 74 | 166 | 2.0 | 6.0 | 0.00 | 0.02 | 0.02 | 45 | 1008.5 |
| 20260509210530 | 73 | 187 | 2.0 | 6.0 | 0.00 | 0.02 | 0.02 | 46 | 1008.5 |
| 20260509205525 | 73 | 230 | 2.0 | 7.0 | 0.00 | 0.02 | 0.02 | 46 | 1008.4 |
| 20260509204541 | 73 | 257 | 3.0 | 6.0 | 0.00 | 0.02 | 0.02 | 47 | 1008.4 |
| 20260509203516 | 73 | 251 | 3.0 | 6.0 | 0.00 | 0.02 | 0.02 | 46 | 1008.2 |
| 20260509202531 | 72 | 217 | 2.0 | 4.0 | 0.00 | 0.02 | 0.02 | 48 | 1008.3 |
| 20260509201527 | 72 | 199 | 2.0 | 6.0 | 0.00 | 0.02 | 0.02 | 48 | 1008.5 |
| 20260509200543 | 73 | 294 | 3.0 | 5.0 | 0.00 | 0.02 | 0.02 | 47 | 1008.7 |
| 20260509195518 | 72 | 250 | 2.0 | 5.0 | 0.00 | 0.02 | 0.02 | 48 | 1008.7 |
| 20260509194534 | 71 | 173 | 2.0 | 5.0 | 0.00 | 0.02 | 0.02 | 50 | 1008.9 |
| 20260509193529 | 70 | 208 | 2.0 | 5.0 | 0.00 | 0.02 | 0.02 | 52 | 1009.3 |
| 20260509192525 | 69 | 269 | 3.0 | 9.0 | 0.01 | 0.02 | 0.02 | 53 | 1009.4 |
| 20260509191520 | 69 | 270 | 2.0 | 6.0 | 0.02 | 0.02 | 0.02 | 55 | 1009.5 |
| 20260509190515 | 68 | 184 | 2.0 | 8.0 | 0.02 | 0.02 | 0.02 | 56 | 1009.5 |
| 20260509185531 | 68 | 171 | 3.0 | 9.0 | 0.02 | 0.02 | 0.02 | 59 | 1009.4 |
| 20260509184526 | 67 | 177 | 1.0 | 4.0 | 0.02 | 0.02 | 0.02 | 62 | 1009.5 |
| 20260509183521 | 67 | 270 | 2.0 | 4.0 | 0.02 | 0.02 | 0.02 | 61 | 1009.9 |
| 20260509182517 | 68 | 186 | 2.0 | 5.0 | 0.00 | 0.00 | 0.00 | 54 | 1010.0 |
| 20260509181533 | 68 | 216 | 3.0 | 9.0 | 0.00 | 0.00 | 0.00 | 52 | 1010.1 |
| 20260509180528 | 69 | 217 | 3.0 | 10.0 | 0.00 | 0.00 | 0.00 | 52 | 1010.4 |
| 20260509175524 | 70 | 190 | 2.0 | 5.0 | 0.00 | 0.00 | 0.00 | 50 | 1010.4 |
| 20260509174519 | 69 | 246 | 1.0 | 5.0 | 0.00 | 0.00 | 0.00 | 50 | 1010.4 |
| 20260509173535 | 70 | 181 | 3.0 | 7.0 | 0.00 | 0.00 | 0.00 | 49 | 1010.3 |
| 20260509172530 | 71 | 209 | 5.0 | 11.0 | 0.00 | 0.00 | 0.00 | 47 | 1010.4 |
| 20260509171526 | 69 | 206 | 3.0 | 8.0 | 0.00 | 0.00 | 0.00 | 49 | 1010.5 |
| 20260509170521 | 68 | 240 | 2.0 | 5.0 | 0.00 | 0.00 | 0.00 | 51 | 1010.5 |
| 20260509165517 | 68 | 199 | 3.0 | 10.0 | 0.00 | 0.00 | 0.00 | 51 | 1010.7 |
| 20260509164553 | 68 | 263 | 2.0 | 8.0 | 0.00 | 0.00 | 0.00 | 52 | 1010.9 |
| 20260509163527 | 67 | 253 | 3.0 | 7.0 | 0.00 | 0.00 | 0.00 | 52 | 1010.9 |
| 20260509162542 | 67 | 149 | 2.0 | 6.0 | 0.00 | 0.00 | 0.00 | 52 | 1010.8 |
| 20260509161517 | 67 | 190 | 2.0 | 6.0 | 0.00 | 0.00 | 0.00 | 52 | 1010.9 |
| 20260509160533 | 66 | 176 | 3.0 | 9.0 | 0.00 | 0.00 | 0.00 | 54 | 1010.9 |
| 20260509155527 | 65 | 190 | 3.0 | 5.0 | 0.00 | 0.00 | 0.00 | 54 | 1011.2 |
| 20260509154522 | 66 | 206 | 2.0 | 7.0 | 0.00 | 0.00 | 0.00 | 54 | 1011.2 |
| 20260509153517 | 66 | 197 | 3.0 | 6.0 | 0.00 | 0.00 | 0.00 | 54 | 1011.3 |
| 20260509152613 | 65 | 198 | 3.0 | 7.0 | 0.00 | 0.00 | 0.00 | 55 | 1011.1 |
| 20260509151548 | 64 | 159 | 4.0 | 9.0 | 0.00 | 0.00 | 0.00 | 55 | 1011.3 |
| 20260509150524 | 64 | 170 | 3.0 | 7.0 | 0.00 | 0.00 | 0.00 | 55 | 1011.3 |
| 20260509145519 | 64 | 240 | 3.0 | 8.0 | 0.00 | 0.00 | 0.00 | 57 | 1011.5 |
| 20260509144555 | 63 | 168 | 3.0 | 7.0 | 0.00 | 0.00 | 0.00 | 58 | 1011.6 |
| 20260509143610 | 62 | 165 | 4.0 | 12.0 | 0.00 | 0.00 | 0.00 | 59 | 1011.8 |
| 20260509142525 | 61 | 171 | 2.0 | 8.0 | 0.00 | 0.00 | 0.00 | 60 | 1011.9 |
| 20260509141520 | 60 | 201 | 3.0 | 6.0 | 0.00 | 0.00 | 0.00 | 62 | 1011.9 |
| 20260509140556 | 60 | 159 | 3.0 | 6.0 | 0.00 | 0.00 | 0.00 | 63 | 1011.9 |
| 20260509135531 | 59 | 185 | 2.0 | 6.0 | 0.00 | 0.00 | 0.00 | 64 | 1011.8 |
| 20260509134527 | 59 | 152 | 2.0 | 6.0 | 0.00 | 0.00 | 0.00 | 64 | 1011.9 |
| 20260509133542 | 59 | 223 | 1.0 | 4.0 | 0.00 | 0.00 | 0.00 | 64 | 1012.1 |
| 20260509132517 | 59 | 274 | 2.0 | 7.0 | 0.00 | 0.00 | 0.00 | 63 | 1012.0 |
| 20260509131533 | 59 | 147 | 3.0 | 7.0 | 0.00 | 0.00 | 0.00 | 63 | 1011.9 |
| 20260509130529 | 59 | 157 | 4.0 | 10.0 | 0.00 | 0.00 | 0.00 | 63 | 1011.8 |
| 20260509125524 | 58 | 164 | 3.0 | 7.0 | 0.00 | 0.00 | 0.00 | 63 | 1011.9 |
| 20260509124519 | 58 | 181 | 3.0 | 7.0 | 0.00 | 0.00 | 0.00 | 63 | 1011.9 |
| 20260509123535 | 58 | 162 | 3.0 | 9.0 | 0.00 | 0.00 | 0.00 | 62 | 1011.9 |
| 20260509122530 | 58 | 174 | 4.0 | 9.0 | 0.00 | 0.00 | 0.00 | 61 | 1011.9 |
| 20260509121525 | 58 | 159 | 3.0 | 9.0 | 0.00 | 0.00 | 0.00 | 60 | 1012.0 |
| 20260509120521 | 58 | 175 | 2.0 | 6.0 | 0.00 | 0.00 | 0.00 | 60 | 1012.0 |
| 20260509115516 | 58 | 162 | 4.0 | 8.0 | 0.00 | 0.00 | 0.00 | 60 | 1011.9 |
| 20260509114531 | 58 | 160 | 2.0 | 6.0 | 0.00 | 0.00 | 0.00 | 59 | 1012.0 |
| 20260509113527 | 58 | 149 | 3.0 | 10.0 | 0.00 | 0.00 | 0.00 | 58 | 1011.9 |
| 20260509112522 | 58 | 161 | 3.0 | 9.0 | 0.00 | 0.00 | 0.00 | 57 | 1011.7 |
| 20260509111517 | 58 | 161 | 3.0 | 7.0 | 0.00 | 0.00 | 0.00 | 57 | 1011.5 |
| 20260509110553 | 58 | 158 | 3.0 | 7.0 | 0.00 | 0.00 | 0.00 | 57 | 1011.7 |
| 20260509105529 | 58 | 119 | 1.0 | 4.0 | 0.00 | 0.00 | 0.00 | 56 | 1011.7 |
| 20260509104524 | 58 | 154 | 1.0 | 5.0 | 0.00 | 0.00 | 0.00 | 53 | 1011.6 |
| 20260509103519 | 58 | 162 | 2.0 | 5.0 | 0.00 | 0.00 | 0.00 | 52 | 1011.5 |
| 20260509102535 | 58 | 155 | 2.0 | 6.0 | 0.00 | 0.00 | 0.00 | 52 | 1011.5 |
| 20260509101551 | 58 | 152 | 2.0 | 4.0 | 0.00 | 0.00 | 0.00 | 52 | 1011.4 |
| 20260509100526 | 58 | 173 | 2.0 | 6.0 | 0.00 | 0.00 | 0.00 | 51 | 1011.3 |
| 20260509095521 | 59 | 151 | 1.0 | 3.0 | 0.00 | 0.00 | 0.00 | 50 | 1011.2 |
| 20260509094537 | 59 | 140 | 1.0 | 3.0 | 0.00 | 0.00 | 0.00 | 49 | 1011.2 |
| 20260509093532 | 59 | 141 | 2.0 | 4.0 | 0.00 | 0.00 | 0.00 | 49 | 1011.3 |
| 20260509092528 | 59 | 171 | 1.0 | 4.0 | 0.00 | 0.00 | 0.00 | 49 | 1011.4 |
| 20260509091523 | 59 | 154 | 1.0 | 4.0 | 0.00 | 0.00 | 0.00 | 48 | 1011.4 |
| 20260509090518 | 59 | 158 | 2.0 | 5.0 | 0.00 | 0.00 | 0.00 | 48 | 1011.5 |
| 20260509085534 | 59 | 134 | 2.0 | 6.0 | 0.00 | 0.00 | 0.00 | 48 | 1011.6 |
| 20260509084550 | 59 | 172 | 2.0 | 7.0 | 0.00 | 0.00 | 0.00 | 49 | 1011.5 |
| 20260509083525 | 59 | 162 | 2.0 | 6.0 | 0.00 | 0.00 | 0.00 | 49 | 1011.7 |
| 20260509082520 | 59 | 156 | 2.0 | 6.0 | 0.00 | 0.00 | 0.00 | 51 | 1011.8 |
| 20260509081516 | 59 | 150 | 2.0 | 6.0 | 0.00 | 0.00 | 0.00 | 53 | 1011.9 |
| 20260509080531 | 58 | 139 | 3.0 | 9.0 | 0.00 | 0.00 | 0.00 | 55 | 1012.0 |
| 20260509075526 | 58 | 161 | 3.0 | 7.0 | 0.00 | 0.00 | 0.00 | 57 | 1012.1 |
| 20260509074522 | 58 | 146 | 2.0 | 3.0 | 0.00 | 0.00 | 0.00 | 56 | 1012.1 |
| 20260509073518 | 58 | 162 | 2.0 | 6.0 | 0.00 | 0.00 | 0.00 | 56 | 1012.2 |
| 20260509072553 | 58 | 181 | 2.0 | 6.0 | 0.00 | 0.00 | 0.00 | 55 | 1012.2 |
| 20260509071529 | 58 | 147 | 2.0 | 5.0 | 0.00 | 0.00 | 0.00 | 54 | 1012.3 |
| 20260509070524 | 58 | 165 | 2.0 | 4.0 | 0.00 | 0.00 | 0.00 | 54 | 1012.2 |
| 20260509065520 | 58 | 155 | 2.0 | 5.0 | 0.00 | 0.00 | 0.00 | 53 | 1012.4 |
| 20260509064515 | 58 | 161 | 3.0 | 10.0 | 0.00 | 0.00 | 0.00 | 52 | 1012.4 |
| 20260509063530 | 58 | 142 | 1.0 | 6.0 | 0.00 | 0.00 | 0.00 | 52 | 1012.5 |
| 20260509062526 | 58 | 158 | 1.0 | 3.0 | 0.00 | 0.00 | 0.00 | 52 | 1012.5 |
| 20260509061521 | 58 | 130 | 2.0 | 4.0 | 0.00 | 0.00 | 0.00 | 51 | 1012.5 |
| 20260509060516 | 58 | 152 | 1.0 | 6.0 | 0.00 | 0.00 | 0.00 | 50 | 1012.5 |
| 20260509055552 | 58 | 154 | 2.0 | 4.0 | 0.00 | 0.00 | 0.00 | 50 | 1012.6 |
| 20260509054528 | 58 | 144 | 2.0 | 5.0 | 0.00 | 0.00 | 0.00 | 50 | 1012.6 |
| 20260509053523 | 58 | 165 | 1.0 | 3.0 | 0.00 | 0.00 | 0.00 | 50 | 1012.7 |
| 20260509052519 | 58 | 137 | 2.0 | 5.0 | 0.00 | 0.00 | 0.00 | 49 | 1012.7 |
| 20260509051534 | 58 | 164 | 1.0 | 5.0 | 0.00 | 0.00 | 0.00 | 49 | 1012.6 |
| 20260509050530 | 58 | 136 | 1.0 | 4.0 | 0.00 | 0.00 | 0.00 | 50 | 1012.6 |
| 20260509045525 | 58 | 150 | 2.0 | 5.0 | 0.00 | 0.00 | 0.00 | 50 | 1012.7 |
| 20260509044521 | 58 | 129 | 2.0 | 4.0 | 0.00 | 0.00 | 0.00 | 51 | 1012.6 |
| 20260509043536 | 58 | 145 | 2.0 | 6.0 | 0.00 | 0.00 | 0.00 | 51 | 1012.7 |
| 20260509042532 | 59 | 145 | 2.0 | 6.0 | 0.00 | 0.00 | 0.00 | 50 | 1012.7 |
| 20260509041527 | 59 | 148 | 2.0 | 5.0 | 0.00 | 0.00 | 0.00 | 51 | 1012.6 |
| 20260509040523 | 59 | 155 | 2.0 | 5.0 | 0.00 | 0.00 | 0.00 | 50 | 1012.6 |
| 20260509035518 | 59 | 94 | 1.0 | 2.0 | 0.00 | 0.00 | 0.00 | 49 | 1012.7 |
| 20260509034534 | 60 | 149 | 2.0 | 5.0 | 0.00 | 0.00 | 0.00 | 48 | 1012.9 |